Location: Unspecified
(50.7693°N, 0.0000°E)
Time: 23:59:57
(UTC+00:00)

Vanguard 1 Rocket - Pass Details

Date: 27 June 2019
Orbit: 651 x 4225 km, 34.3° (Epoch: 19 July)

Event Time Altitude Azimuth Distance (km) Brightness Sun altitude
Rises 16:17:12 0° 235° (SW) 8,224 13.0 34.4°
Reaches altitude 10° 16:23:59 10° 229° (SW) 6,849 12.7 33.4°
Maximum altitude 16:41:29 37° 173° (S) 3,595 10.6 30.6°
Drops below altitude 10° 16:51:47 10° 112° (ESE) 4,081 10.3 29.0°
Sets 16:54:38 0° 103° (ESE) 4,695 10.5 28.5°
